Home   Weather   Kaohsiung   Past weeks

Flag for Taiwan Past Weather in Kaohsiung, Taiwan — Yesterday and Last 2 Weeks

Now
73 °F

Passing clouds.


Feels Like: 74 °F
Forecast: 63 / 82 °F
Wind: 7 mph from Northwest

Location: Kaohsiung International Airport

Current Time: Dec 11, 2016 at 8:08:28 pm

Latest Report: Dec 11, 2016 at 7:30 pm


Visibility: N/A

Pressure: 29.95 "Hg

Humidity: 78%

Dew Point: 66 °F

Location of KaohsiungLocation

Past Weather in Kaohsiung — Graph

°F

Kaohsiung Temperature Yesterday

Maximum temperature yesterday: 81 °F (at 10:30 am)
Minimum temperature yesterday: 68 °F (at 5:00 am)
Average temperature yesterday: 74 °F

High & Low Weather Summary for the Past Weeks

 TemperatureHumidityPressure
High86 °F (Dec 5, 11:30 am)100% (Nov 27, 6:30 am)30.15 "Hg (Nov 27, 6:30 am)
Low66 °F (Nov 27, 9:30 am)55% (Dec 5, 2:30 pm)29.86 "Hg (Nov 27, 3:00 am)
Average74 °F80%30.02 "Hg
* Reported Nov 26 7:00 pm — Dec 11 7:00 pm, Kaohsiung, Weather by CustomWeather, © 2016

Note: Actual official high and low records may vary slightly from our data, if they occured in-between our weather recording intervals... More about our weather records

Advertising

Kaohsiung Weather History for the Previous 24 Hours

Scroll right to see more
 ConditionsComfort  
Time TempWeatherWind HumidityBarometerVisibility
7:00 pm
Sun, Dec 11
73 °FPassing clouds.6 mph78%29.95 "HgN/A
6:30 pm73 °FPartly cloudy.3 mph78%29.95 "HgN/A
6:00 pm73 °FPartly cloudy.6 mph78%29.95 "HgN/A
5:30 pm73 °FPassing clouds.7 mph78%29.95 "HgN/A
5:00 pm75 °FBroken clouds.8 mph74%29.95 "HgN/A
4:30 pm77 °FBroken clouds.8 mph69%29.95 "HgN/A
4:00 pm77 °FPartly sunny.8 mph69%29.95 "HgN/A
3:30 pm77 °FScattered showers. Broken clouds.10 mph69%29.95 "HgN/A
3:00 pm79 °FScattered clouds.9 mph61%29.92 "HgN/A
2:30 pm79 °FScattered clouds.10 mph65%29.92 "Hg6 mi
2:00 pm79 °FScattered clouds.10 mph65%29.95 "Hg4 mi
1:30 pm79 °FPassing clouds.10 mph70%29.95 "Hg4 mi
1:00 pm79 °FScattered clouds.12 mph70%29.95 "Hg3 mi
12:30 pm79 °FScattered clouds.10 mph65%29.95 "HgN/A
11:58 am81 °FScattered clouds.10 mph62%29.98 "Hg5 mi
11:30 am79 °FScattered clouds.9 mph70%29.98 "Hg3 mi
11:00 am79 °FScattered clouds.7 mph74%30.01 "Hg4 mi
10:30 am79 °FScattered clouds.3 mph61%30.01 "HgN/A
10:00 am77 °FScattered clouds.3 mph69%30.01 "Hg4 mi
9:30 am75 °FScattered clouds.5 mph74%30.04 "Hg3 mi
9:00 am73 °FScattered clouds.6 mph78%30.04 "Hg3 mi
8:30 am72 °FFog.5 mph83%30.04 "Hg3 mi
8:00 am72 °FFog.5 mph83%30.04 "Hg3 mi
7:30 am70 °FFog.6 mph83%30.01 "Hg3 mi
7:00 am68 °FFog.5 mph88%30.01 "Hg2 mi
6:30 am66 °FFog.3 mph100%30.01 "Hg1 mi
6:00 am68 °FFog.3 mph94%29.98 "Hg2 mi
5:00 am70 °FFog.3 mph88%29.95 "Hg2 mi
4:00 am70 °FFog.5 mph88%29.95 "Hg2 mi
3:00 am70 °FFog.5 mph94%29.95 "Hg2 mi
2:00 am70 °FFog.5 mph94%29.95 "Hg2 mi
1:00 am70 °FFog.1 mph94%29.98 "Hg2 mi
12:00 am70 °FFog.3 mph88%29.98 "Hg3 mi
11:30 pm
Sat, Dec 10
72 °FFog.2 mph88%29.98 "Hg3 mi
11:00 pm70 °FFog.3 mph88%29.95 "Hg3 mi
10:47 pm72 °FFog.5 mph88%29.95 "Hg3 mi
10:00 pm70 °FPartly cloudy.6 mph94%29.98 "Hg4 mi
9:30 pm73 °FPassing clouds.2 mph83%29.98 "Hg4 mi
9:00 pm73 °FPassing clouds.2 mph83%29.98 "Hg5 mi
8:30 pm73 °FPartly cloudy.5 mph83%29.98 "Hg5 mi
8:00 pm73 °FPartly cloudy.5 mph83%29.98 "Hg5 mi
Weather by CustomWeather, © 2016

See weather overviewHow to use our weather pages